Weather History for Sable Island, NS

Change the Weather History Date:

Monday, November 21, 2011

  Actual Average Record
Temperature  
Mean Temperature 44 °F -  
Max Temperature 51 °F 45 °F 55 °F (1998)
Min Temperature 37 °F 37 °F 32 °F (2014)
Degree Days  
Heating Degree Days 20    
Moisture  
Dew Point 38 °F    
Average Humidity 74    
Maximum Humidity 100    
Minimum Humidity 41    
Precipitation  
Precipitation 0.00 in - - ()
Sea Level Pressure  
Sea Level Pressure 30.09 in    
Wind  
Wind Speed 13 mph ()    
Max Wind Speed 21 mph    
Max Gust Speed 24 mph    
Visibility 7.1 miles    
Events Rain    
Averages and records for this station are not official NWS values.
T = Trace of Precipitation, MM = Missing Value Source: Averaged Metar Reports

Daily Weather History Graph

Daily Weather History Graph

Search for Another Location

Airport:

Trip Planner

Search our weather history database for the weather conditions in past years. The results will help you decide how hot, cold, wet, or windy it might be!

Date:

Astronomy

Nov. 21, 2011 Rise Set
Actual Time 7:02 AM AST 4:29 PM AST
Civil Twilight 6:30 AM AST 5:00 PM AST
Nautical Twilight 5:55 AM AST 5:35 PM AST
Astronomical Twilight 5:20 AM AST 6:10 PM AST
Moon 2:27 AM AST (11/21) 1:54 PM AST (11/21)
Length of Visible Light 10h 30m
Length of Day
9h 27m
Waning Crescent, 18% of the Moon is Illuminated
Nov 21
Waning Crescent
Nov 25
New
Dec 2
First Quarter
Dec 10
Full
Dec 17
Last Quarter

Hourly Weather History & Observations

Time (AST) Temp. Windchill Dew Point Humidity Pressure Visibility Wind Dir Wind Speed Gust Speed Precip Events Conditions
12:00 AM 51.8 °F - 50.0 °F 94% 29.96 in 3.0 mi WSW 17.3 mph - N/A   Overcast
1:03 AM 51.8 °F - 50.0 °F 94% 29.95 in 2.5 mi WSW 17.3 mph - N/A   Overcast
2:00 AM 51 °F - 49 °F 92% 29.97 in 2 mi West 13.8 mph - -  
2:00 AM 51.8 °F - 50.0 °F 94% 29.97 in 2.4 mi West 11.5 mph 18.4 mph N/A   Mostly Cloudy
3:00 AM 50.0 °F - 50.0 °F 100% 29.98 in 2.5 mi West 16.1 mph - N/A   Scattered Clouds
5:00 AM 50 °F - 49 °F 94% 29.99 in 2 mi West 11.5 mph - -  
5:00 AM 50.0 °F - 48.2 °F 94% 29.99 in 2.5 mi West 12.7 mph - N/A   Mostly Cloudy
5:20 AM 50.0 °F - 48.2 °F 94% 29.98 in 3.0 mi West 12.7 mph - N/A   Mostly Cloudy
5:34 AM 50.0 °F - 48.2 °F 94% 29.98 in 2.5 mi West 9.2 mph - N/A   Overcast
6:00 AM 50.0 °F - 48.2 °F 94% 30.00 in 2.5 mi West 6.9 mph - N/A   Overcast
6:13 AM 50.0 °F - 48.2 °F 94% 29.99 in 3.5 mi WNW 11.5 mph - N/A   Overcast
6:15 AM 50.0 °F - 48.2 °F 94% 29.99 in 4.0 mi WNW 10.4 mph - N/A   Overcast
6:41 AM 50.0 °F - 48.2 °F 94% 30.01 in 5.0 mi NNW 9.2 mph - N/A   Overcast
6:50 AM 48.2 °F - 44.6 °F 87% 30.01 in 7.0 mi North 13.8 mph - N/A   Overcast
7:00 AM 48.2 °F - 42.8 °F 82% 30.02 in 9.0 mi North 15.0 mph - N/A   Overcast
7:17 AM 48.2 °F - 44.6 °F 87% 30.01 in 9.0 mi North 15.0 mph - N/A   Overcast
8:00 AM 47 °F - 40 °F 69% 30.05 in 9 mi North 16.1 mph - -   Overcast
8:00 AM 46.4 °F 39.8 °F 41.0 °F 81% 30.05 in 9.0 mi North 16.1 mph - N/A   Overcast
8:18 AM 46.4 °F 40.1 °F 39.2 °F 76% 30.06 in 9.0 mi North 15.0 mph - N/A Rain Light Rain
9:00 AM 46.4 °F 39.8 °F 41.0 °F 81% 30.08 in 9.0 mi North 16.1 mph - N/A Rain Light Rain
9:02 AM 44.6 °F 37.8 °F 39.2 °F 81% 30.08 in 9.0 mi North 15.0 mph 20.7 mph N/A   Overcast
9:40 AM 44.6 °F 36.6 °F 35.6 °F 71% 30.08 in 9.0 mi North 19.6 mph - N/A   Mostly Cloudy
10:00 AM 44.6 °F 37.4 °F 37.4 °F 76% 30.09 in 9.0 mi North 16.1 mph - N/A   Overcast
10:20 AM 44.6 °F 36.9 °F 35.6 °F 71% 30.09 in 9.0 mi North 18.4 mph - N/A   Overcast
10:40 AM 44.6 °F 36.9 °F 35.6 °F 71% 30.09 in 9.0 mi North 18.4 mph - N/A   Overcast
11:00 AM 44 °F - 35 °F 59% 30.10 in 9 mi North 17.3 mph - -   Overcast
11:00 AM 44.6 °F 37.2 °F 33.8 °F 66% 30.10 in 9.0 mi North 17.3 mph - N/A   Overcast
11:54 AM 44.6 °F 37.2 °F 35.6 °F 71% 30.09 in 9.0 mi North 17.3 mph - N/A   Overcast
12:00 PM 44.6 °F 36.4 °F 35.6 °F 71% 30.10 in 9.0 mi North 20.7 mph - N/A   Overcast
1:00 PM 42.8 °F 34.3 °F 32.0 °F 66% 30.12 in 9.0 mi North 19.6 mph - N/A   Overcast
2:00 PM 42 °F - 30 °F 52% 30.14 in 9 mi North 19.6 mph - -  
3:00 PM 41.0 °F 32.5 °F 28.4 °F 61% 30.16 in 9.0 mi North 17.3 mph 23.0 mph N/A   Overcast
5:00 PM 40 °F - 25 °F 43% 30.18 in 9 mi North 15.0 mph - -  
5:00 PM 39.2 °F 30.8 °F 24.8 °F 56% 30.18 in 9.0 mi North 15.0 mph 24.2 mph N/A   Scattered Clouds
6:00 PM 39.2 °F 31.6 °F 24.8 °F 56% 30.21 in 9.0 mi NNE 12.7 mph 19.6 mph N/A   Mostly Cloudy
7:00 PM 39.2 °F 30.8 °F 24.8 °F 56% 30.22 in 9.0 mi NNW 15.0 mph 20.7 mph N/A   Mostly Cloudy
8:00 PM 39 °F - 24 °F 41% 30.24 in 9 mi North 13.8 mph - -   Overcast
8:00 PM 39.2 °F 30.8 °F 23.0 °F 52% 30.24 in 9.0 mi NNE 15.0 mph - N/A   Overcast
9:00 PM 39.2 °F 32.0 °F 24.8 °F 56% 30.25 in 9.0 mi North 11.5 mph 18.4 mph N/A   Overcast
10:00 PM 39.2 °F 30.8 °F 23.0 °F 52% 30.27 in 9.0 mi North 15.0 mph - N/A   Overcast
11:00 PM 38 °F - 25 °F 47% 30.27 in 9 mi North 12.7 mph - -   Overcast
11:00 PM 37.4 °F 29.3 °F 24.8 °F 60% 30.27 in 9.0 mi North 12.7 mph - N/A   Overcast